[[{"header":{"parameterUnit":"m.s-1","parameterCategory":1,"la1":30.2992,"la2":30.254,"lo1":-89.0895,"lo2":-89.0443,"dy":0.0025,"dx":0.0025,"nx":19,"ny":19,"refTime":"2026-05-05T21:00:00:Z","depth":0,"parameterNumber":2,"parameterNumberName":"U-component_of_WINDS"},"data":[0,0,0,1.7611,1.761,1.7588,1.7588,1.7567,1.7567,0,0,0,0,0,0,0,0,0,0,0,1.762,1.762,1.7611,1.761,1.7588,1.7588,1.7567,1.7567,0,0,0,0,0,0,0,0,0,0,0,1.762,1.762,1.762,1.761,1.7588,1.7588,1.7567,1.7582,0,0,0,0,0,0,0,0,0,0,1.7602,1.7613,1.762,1.762,1.761,1.7589,1.7588,1.7582,1.7581,1.758,0,1.7579,0,1.7573,1.7566,1.7566,0,0,0,1.7608,1.7614,1.7606,1.762,1.761,1.7589,1.7598,1.7581,1.758,1.7578,1.7579,1.7578,1.7573,1.7566,1.7566,1.7569,1.7569,0,0,1.7609,1.7618,1.7607,1.7605,1.7608,1.7598,1.7597,1.758,1.7582,1.7579,1.7577,1.7572,1.7566,1.7566,1.7569,1.7569,0,0,0,1.7614,1.7619,1.761,1.7606,1.7602,1.7598,1.7596,1.7583,1.7579,1.7577,1.7572,1.7566,1.7566,1.7569,1.7569,1.7584,0,0,0,1.7615,1.7622,1.7611,1.7616,1.7602,1.7591,1.7599,1.758,1.7578,1.7572,1.7566,1.7566,1.7569,1.7569,1.7583,1.7589,0,0,0,1.7621,1.7622,1.762,1.7617,1.7608,1.7592,1.7587,1.758,1.7575,1.7566,1.7566,1.7569,1.7569,1.7583,1.7588,1.7593,0,0,0,1.7629,1.7633,1.7621,1.7623,1.7608,1.7601,1.7587,1.7581,1.7575,1.7566,1.7569,1.7569,1.7582,1.7587,1.7593,1.7599,1.7602,0,0,1.7638,1.7634,1.7635,1.7624,1.7621,1.7604,1.7604,1.7589,1.7581,1.7574,1.7574,1.7583,1.7588,1.7593,1.7619,1.7622,0,0,0,1.7641,1.7642,1.7639,1.7634,1.7624,1.7617,1.7602,1.7598,1.7592,1.7579,1.7587,1.7589,1.7592,1.7594,1.7597,1.7599,1.7571,1.7571,1.7571,1.7665,1.7655,1.7656,1.7644,1.764,1.7626,1.7622,1.7614,1.7603,1.7606,1.7603,1.7621,1.7624,1.7626,1.7628,1.7606,1.7606,1.7606,1.7607,1.7678,1.7677,1.7667,1.7664,1.7654,1.7651,1.764,1.7633,1.7631,1.7621,1.7623,1.7613,1.7629,1.7631,1.7608,1.7607,1.7607,1.7607,1.7607,1.7692,1.769,1.7686,1.768,1.7676,1.7665,1.7663,1.7654,1.7645,1.7647,1.7645,1.7644,1.7643,1.7647,1.7647,1.7647,1.7647,1.7647,1.7647,1.7708,1.7703,1.7703,1.7695,1.7692,1.7687,1.7677,1.7674,1.7668,1.7662,1.7662,1.7652,1.7633,1.7628,1.7648,1.7648,1.7648,1.7648,1.7648,1.7724,1.772,1.7719,1.7717,1.7709,1.7707,1.7697,1.7693,1.7689,1.7689,1.7681,1.7668,1.7662,1.766,1.7656,1.7682,1.7682,1.7682,1.7682,1.7736,1.7733,1.7732,1.7729,1.7725,1.7716,1.7718,1.7711,1.7703,1.7701,1.7697,1.7691,1.7689,1.7685,1.7682,1.7678,1.7709,1.7709,1.7709,1.7745,1.7742,1.7744,1.7737,1.7731,1.7726,1.7729,1.7727,1.7717,1.771,1.77,1.7698,1.7689,1.7686,1.7677,1.7674,1.7666,0,0]},{"header":{"parameterUnit":"m.s-1","parameterCategory":1,"la1":30.2992,"la2":30.254,"lo1":-89.0895,"lo2":-89.0443,"dy":0.0025,"dx":0.0025,"nx":19,"ny":19,"refTime":"2026-05-05T21:00:00:Z","depth":0,"parameterNumber":3,"parameterNumberName":"V-component_of_WINDS"},"data":[0,0,0,3.0472,3.0474,3.0599,3.06,3.0734,3.0735,0,0,0,0,0,0,0,0,0,0,0,3.0423,3.0424,3.0472,3.0474,3.0599,3.06,3.0734,3.0735,0,0,0,0,0,0,0,0,0,0,0,3.0423,3.0424,3.0424,3.0475,3.0599,3.06,3.0733,3.0647,0,0,0,0,0,0,0,0,0,0,3.053,3.0475,3.0423,3.0424,3.0475,3.0599,3.06,3.0644,3.0653,3.0668,0,3.0681,0,3.071,3.0743,3.0743,0,0,0,3.0482,3.0467,3.0512,3.0424,3.0476,3.0598,3.0545,3.0649,3.0659,3.068,3.0683,3.0689,3.0713,3.0743,3.0744,3.0813,3.0813,0,0,3.0475,3.0439,3.0505,3.0518,3.0501,3.0541,3.0549,3.0655,3.0656,3.0684,3.0692,3.0715,3.0744,3.0745,3.0813,3.0813,0,0,0,3.045,3.0433,3.0476,3.0512,3.0536,3.0544,3.0553,3.0651,3.0668,3.0694,3.0716,3.0745,3.0746,3.0813,3.0813,3.0778,0,0,0,3.0446,3.0419,3.0472,3.0451,3.0534,3.0596,3.0546,3.0661,3.0674,3.0716,3.0745,3.0747,3.0814,3.0813,3.0779,3.0766,0,0,0,3.0419,3.0416,3.043,3.0449,3.0502,3.0595,3.0619,3.0664,3.0687,3.0743,3.0748,3.0814,3.0813,3.078,3.0768,3.0775,0,0,0,3.0378,3.0395,3.0429,3.0457,3.05,3.0573,3.0619,3.0674,3.0718,3.0745,3.0814,3.0813,3.078,3.077,3.0775,3.0773,3.077,0,0,3.0379,3.0394,3.0413,3.0447,3.0505,3.0557,3.0609,3.0682,3.0718,3.0778,3.0781,3.0779,3.0769,3.0775,3.0759,3.0756,0,0,0,3.0401,3.0414,3.0437,3.0479,3.0537,3.0585,3.0655,3.0682,3.0735,3.0743,3.0784,3.0779,3.0784,3.0784,3.0781,3.0788,3.0812,3.0812,3.0812,3.0349,3.0398,3.0433,3.0496,3.0536,3.0608,3.0643,3.0691,3.0726,3.0735,3.0753,3.0738,3.0738,3.0736,3.0742,3.0756,3.0756,3.0756,3.0756,3.0355,3.0382,3.0431,3.0482,3.0532,3.0573,3.0642,3.0666,3.071,3.0728,3.0735,3.0751,3.0731,3.0738,3.0753,3.0754,3.0754,3.0754,3.0754,3.0327,3.0348,3.0383,3.0448,3.0492,3.0554,3.0596,3.0639,3.0679,3.0686,3.071,3.0711,3.0716,3.0695,3.0695,3.0695,3.0694,3.0694,3.0694,3.0284,3.0324,3.0356,3.0419,3.0452,3.0499,3.0571,3.0603,3.0649,3.0677,3.0677,3.0711,3.072,3.0722,3.0694,3.0694,3.0694,3.0694,3.0694,3.0272,3.0282,3.033,3.0363,3.0441,3.0481,3.0536,3.0597,3.0629,3.0648,3.068,3.0681,3.0698,3.07,3.0702,3.0671,3.0671,3.0671,3.0671,3.0248,3.0262,3.0321,3.0371,3.0423,3.0479,3.0528,3.0583,3.0641,3.0663,3.0674,3.0679,3.068,3.0697,3.0699,3.0701,3.0671,3.0671,3.0671,3.0243,3.0264,3.03,3.036,3.0424,3.0476,3.0524,3.0576,3.0643,3.0672,3.0681,3.0681,3.0691,3.0691,3.072,3.0724,3.0728,0,0]}]]